Location: Oshawa
(43.9000°N, 78.8670°W)
Time: 02:49:28
(UTC-04:00)

Daily predictions for brighter satellites

Satellite Brightness Start Highest point End
(mag) Time Altitude Azimuth Time Altitude Azimuth Time Altitude Azimuth
Terra 3.4 00:06:29 28° W 00:06:29 28° W 00:09:58 10° NW
Cosmos 1725 Rocket 4.4 00:07:43 52° ENE 00:07:43 52° ENE 00:12:57 10° NNE
COSMOS 2406 4.4 00:11:12 31° ENE 00:11:12 31° ENE 00:14:30 10° NE
Cosmos 2016 Rocket 4.0 00:16:40 76° NNE 00:16:40 76° NNE 00:22:18 10° N
Meteor 2-12 Rocket 4.5 00:19:55 74° NW 00:19:55 74° NW 00:25:37 10° N
Meteor 1-11 Rocket 4.4 00:16:17 10° NNW 00:21:00 46° WNW 00:21:00 46° WNW
BREEZE M DEB (TANK) 3.8 00:17:08 10° WNW 00:23:36 44° NNW 00:23:36 44° NNW
Cosmos 1459 Rocket 4.3 00:26:12 55° W 00:26:18 55° WNW 00:32:17 10° N
Meteor 1-27 Rocket 4.4 00:27:28 50° WNW 00:27:28 50° WNW 00:33:02 10° N
H-2A R/B 3.7 00:31:11 34° N 00:31:11 34° N 00:33:54 10° N
Cosmos 1943 Rocket 4.4 00:42:33 10° WNW 00:44:20 13° W 00:44:20 13° W
Mayak 0.8 00:42:27 10° NNE 00:44:18 25° NNE 00:44:18 25° NNE
USA 267 3.6 00:41:33 10° NE 00:48:00 62° NNW 00:50:23 39° W
Tsikada Rocket 4.1 00:42:37 10° N 00:48:14 69° NW 00:48:14 69° NW
ADEOS Rocket 3.6 00:42:27 10° NNE 00:48:01 50° ENE 00:48:01 50° ENE
Lacrosse 4 Rocket 3.6 00:47:51 10° N 00:50:41 23° NNE 00:50:41 23° NNE
USA 234 3.5 01:23:19 58° WNW 01:23:19 58° WNW 01:28:36 10° NW
Cosmos 2233 Rocket 4.3 01:24:04 58° NW 01:24:04 58° NW 01:29:29 10° N
BREEZE-M R/B 4.3 01:15:06 10° WSW 01:24:03 78° NNW 01:29:46 10° ENE
SeaSat 1 3.7 01:32:22 37° NNW 01:32:22 37° NNW 01:35:21 10° NNW
Cosmos 1464 Rocket 4.2 01:32:18 63° ENE 01:32:18 63° ENE 01:37:55 10° NNE
Cosmos 1980 Rocket 3.5 01:31:35 10° N 01:36:39 33° NE 01:37:29 32° ENE
Cosmos 1697 Rocket 3.3 01:31:20 10° NNW 01:36:24 52° NE 01:36:24 52° NE
Cosmos 1867 4.4 01:33:10 10° NNW 01:37:08 48° NNW 01:37:08 48° NNW
Cosmos 1656 4.2 01:35:55 10° NNW 01:40:21 55° NNW 01:40:21 55° NNW
Meteor 2-4 Rocket 4.3 01:44:41 49° NE 01:44:41 49° NE 01:48:42 10° NNE
Cosmos 2278 4.2 01:38:02 10° NNW 01:42:27 55° NNW 01:42:27 55° NNW
Nadezhda 4 Rocket 4.4 01:38:00 10° N 01:43:58 51° ENE 01:43:58 51° ENE
Cosmos 2082 Rocket 2.8 01:55:13 52° NE 01:55:13 52° NE 01:59:37 10° NNE
SL-16 R/B 4.2 01:57:19 17° ESE 02:00:44 27° ENE 02:05:49 10° N
Cosmos 1607 4.0 02:03:28 75° NW 02:03:28 75° NW 02:09:49 10° NNE
CZ-4B R/B 4.3 02:08:56 18° N 02:08:56 18° N 02:10:04 10° N
Lacrosse 5 rocket 3.3 02:09:30 29° NNE 02:09:30 29° NNE 02:11:45 10° NE
Cosmos 2322 Rocket 4.4 02:03:54 10° N 02:08:12 21° NE 02:12:26 10° E
Cosmos 1932 4.5 02:12:26 79° ENE 02:12:26 79° ENE 02:18:29 10° NE
APEX 4.4 02:16:32 79° NNE 02:16:32 79° NNE 02:21:45 10° NNE
Cosmos 1833 Rocket 2.9 02:19:22 65° NNW 02:19:22 65° NNW 02:24:22 10° NNE
Mayak 1.6 02:20:41 10° NW 02:20:55 10° NW 02:20:55 10° NW
Cosmos 1898 Rocket 4.1 02:22:46 10° N 02:27:51 50° ENE 02:28:03 49° ENE
Lacrosse 4 Rocket 4.0 02:26:11 10° NW 02:26:59 15° NW 02:26:59 15° NW
ADEOS Rocket 4.4 02:28:31 10° N 02:33:59 28° WNW 02:34:58 27° WNW
Cosmos 371 Rocket 4.4 02:40:05 38° NW 02:40:05 38° NW 02:43:48 10° N
CZ-2D R/B 3.3 02:36:33 10° NNE 02:41:20 32° E 02:41:54 31° ESE
Cosmos 468 Rocket 4.4 02:42:19 55° E 02:42:19 55° E 02:47:09 10° NNE
Cosmos 2208 Rocket 4.2 02:43:11 68° ENE 02:43:11 68° ENE 02:47:54 10° NNE
Cosmos 44 Rocket 4.3 02:44:13 10° NNW 02:49:10 47° NE 02:51:49 25° ESE
Cosmos 1570 Rocket 4.1 02:50:08 76° N 02:50:08 76° N 02:55:05 10° NNE
Cosmos 1092 Rocket 3.9 02:50:36 10° NNW 02:56:48 66° W 02:56:56 66° WSW
ARIANE 5 R/B 4.0 02:52:32 10° NE 02:57:00 28° E 02:58:19 25° ESE
Resurs 1-4 Rocket 2.7 02:54:58 10° NNE 03:00:03 47° E 03:00:39 45° ESE
Cosmos 304 Rocket 4.1 03:01:58 61° NNW 03:01:58 61° NNW 03:06:12 10° NNE
ATLAS 3B R/B 3.1 03:02:29 45° SSE 03:03:59 53° ESE 03:10:41 10° NE
Cosmos 2142 Rocket 4.3 03:04:50 70° S 03:05:38 90° E 03:11:48 10° N
Timation 2 Rocket 4.1 03:06:33 52° SE 03:07:25 57° ESE 03:13:16 10° NE
Cosmos 1025 Rocket 3.9 03:12:39 40° NNW 03:12:39 40° NNW 03:15:46 10° N
Cosmos 1606 Rocket 3.9 03:07:44 10° N 03:11:26 63° NNE 03:11:26 63° NNE
BREEZE-M R/B 4.3 03:14:50 28° E 03:14:50 28° E 03:17:20 10° ENE
Cosmos 1066 Rocket 3.9 03:13:26 78° WSW 03:13:40 80° W 03:19:04 10° N
SJ 16-02 3.6 03:10:19 10° N 03:13:56 24° ENE 03:17:31 10° ESE
Cosmos 841 Rocket 4.0 03:15:24 46° SE 03:16:07 49° ESE 03:21:08 10° NNE
Cosmos 2058 Rocket 3.8 03:12:03 10° N 03:16:24 50° ENE 03:17:03 46° ESE
Cosmos 2360 Rocket 3.9 03:13:07 10° N 03:18:05 31° NE 03:23:02 10° ESE
Cosmos 1655 Rocket 4.1 03:12:25 10° N 03:18:50 80° E 03:21:13 42° SSE
Cosmos 1766 4.0 03:14:57 10° N 03:18:09 52° NNE 03:18:09 52° NNE
Okean 1-7 Rocket 3.7 03:20:03 68° NNW 03:20:03 68° NNW 03:24:09 10° N
NOSS 3-2 (A) 4.1 03:18:20 37° SSE 03:19:41 43° ESE 03:25:43 10° NE
Cosmos 1697 Rocket 4.5 03:16:05 10° NW 03:18:06 18° WNW 03:18:06 18° WNW
Cosmos 1980 Rocket 3.1 03:15:30 10° NW 03:19:13 33° WNW 03:19:13 33° WNW
Cosmos 2150 Rocket 4.1 03:16:16 10° NNW 03:21:46 77° ENE 03:23:38 42° SE
UNK 3.6 03:23:06 78° NW 03:23:06 78° NW 03:27:28 10° NNW
IRS-P3 4.0 03:19:21 10° NNE 03:24:42 80° WNW 03:25:19 69° SW
MOZ.5/SAFIR/RUBIN 5/SL-8 4.1 03:23:46 46° SE 03:24:58 64° ENE 03:29:42 10° N
SAR-Lupe-2 4.4 03:27:34 47° ENE 03:27:34 47° ENE 03:30:52 10° N
Cosmos 292 Rocket 4.3 03:27:06 44° SE 03:27:51 48° ESE 03:32:28 10° NNE
Cosmos 1892 Rocket 3.5 03:29:27 82° E 03:29:27 82° E 03:33:50 10° N
Cosmos 2298 Rocket 3.9 03:25:38 10° NNW 03:30:58 81° WSW 03:31:54 61° S
IRS-1D 3.6 03:28:18 10° NNE 03:33:34 77° ESE 03:34:46 54° S
Cosmos 1953 4.3 03:32:09 10° NNE 03:35:42 28° ENE 03:38:39 13° SE
Cosmos 1763 Rocket 3.4 03:36:51 63° SW 03:37:40 77° WNW 03:43:01 10° NNE
Cosmos 2082 Rocket 3.8 03:37:03 20° WNW 03:38:36 22° NW 03:42:59 10° N
Cosmos 44 3.9 03:34:45 10° NW 03:38:57 46° W 03:38:57 46° W
NPP 3.8 03:35:17 10° N 03:40:32 54° WNW 03:41:24 49° WSW
SL-16 R/B 2.1 03:35:15 10° NNW 03:40:57 81° WSW 03:43:42 32° SSE
SL-16 R/B 2.6 03:42:24 46° SSW 03:43:56 57° W 03:50:08 10° NNW
Iridium 4 Rocket 4.3 03:45:10 30° WNW 03:45:10 30° WNW 03:48:49 10° NNW
Aureole 2 Rocket 3.9 03:43:55 10° N 03:47:27 38° ENE 03:49:45 17° SE
Lacrosse 5 rocket 3.9 03:45:09 10° NW 03:47:43 16° NNW 03:50:21 10° NNE
ERS-1 4.3 03:42:58 10° NNE 03:47:58 90° E 03:49:14 52° SSW
Cosmos 2322 Rocket 2.1 03:47:11 10° NNW 03:52:47 69° WSW 03:55:33 31° S
Cosmos 2279 Rocket 4.2 03:53:47 41° SW 03:55:37 54° WNW 04:01:46 10° N
H-2A R/B 3.3 03:51:55 10° N 03:55:56 37° WNW 03:56:07 37° WNW
ERBS 3.0 03:57:19 46° ESE 03:57:19 46° ESE 04:00:20 10° ENE
Gblst 52 Del rocket 4.2 03:53:34 10° WNW 03:59:21 81° SW 04:05:52 10° SE
Meteor 1-21 4.1 03:58:14 41° SSW 04:00:18 77° W 04:05:55 10° N
ATLAS CENTAUR R/B 2.0 03:56:42 10° NNW 04:01:06 65° NE 04:05:45 10° SE
SL-08 R/B 4.2 04:02:51 32° W 04:02:51 32° W 04:06:54 10° NNW
Cosmos 1758 3.2 04:02:11 10° N 04:06:11 84° E 04:07:39 38° SSE
ADEOS 3.8 04:02:13 10° NNE 04:07:26 69° ESE 04:10:26 26° S
UNKNOWN OBJECT B 2.8 04:07:35 10° NNE 04:11:25 73° ESE 04:12:34 42° S
Cosmos 1937 Rocket 4.5 04:07:34 10° NW 04:11:24 27° W 04:11:24 27° W
Cosmos 1470 3.3 04:07:59 10° N 04:11:56 59° E 04:15:00 16° SSE
Cosmos 1833 4.4 04:10:32 27° S 04:13:45 69° ESE 04:19:30 10° NNE
ADEOS II 2.8 04:10:18 10° NNE 04:15:26 50° E 04:19:52 14° S
Cosmos 1707 3.7 04:15:03 19° SSE 04:17:31 44° E 04:21:16 10° NNE
USA 238 DEB 4.1 04:16:07 27° WSW 04:19:47 54° NW 04:26:39 10° NNE
USA 238 4.1 04:16:13 27° WSW 04:19:53 54° NW 04:26:45 10° NNE
CZ-2D R/B 2.9 04:16:33 10° N 04:21:24 35° WNW 04:23:14 28° WSW
Cosmos 1125 Rocket 3.5 04:17:32 10° NNW 04:22:53 89° WSW 04:28:09 10° SSE
Cosmos 372 Rocket 3.9 04:17:57 10° NNW 04:23:12 83° WSW 04:28:21 10° SSE
Cosmos 2228 4.1 04:22:27 10° NNW 04:25:49 26° W 04:25:49 26° W
DNEPR-1 R/B 3.8 04:25:49 34° WSW 04:27:24 56° NW 04:32:04 10° NNE
Cosmos 1842 4.2 04:27:01 30° W 04:27:28 31° WNW 04:31:02 10° NNW
Meteor 2-11 Rocket 4.4 04:24:45 23° SSW 04:28:43 71° W 04:34:51 10° N
Okean O Rocket 4.5 04:28:21 10° ENE 04:30:18 13° E 04:32:14 10° ESE
Cosmos 44 Rocket 4.3 04:26:11 10° NW 04:30:23 27° WSW 04:30:23 27° WSW
ARIANE 5 R/B 3.2 04:31:21 10° N 04:36:12 39° WNW 04:38:39 25° WSW
Cosmos 2266 Rocket 4.2 04:32:08 10° NNW 04:37:59 50° W 04:42:50 15° SSW
Resurs 1-4 Rocket 3.4 04:35:24 10° N 04:39:36 25° WNW 04:41:44 19° W
Cosmos 1812 Rocket 3.5 04:36:18 10° NNW 04:40:45 69° W 04:45:02 11° S
Cosmos 2322 3.7 04:38:17 10° NNW 04:44:02 82° WSW 04:49:45 10° SSE
Cosmos 1602 Rocket 3.8 04:43:59 25° SW 04:46:08 47° WNW 04:50:20 10° N
Helios 1A Rocket 3.7 04:42:53 10° N 04:46:42 35° WNW 04:48:32 24° WSW
Cosmos 2237 4.1 04:41:47 10° NNW 04:47:32 80° WSW 04:53:14 10° SSE
SJ 16-02 1.9 04:48:34 10° NW 04:52:36 35° WSW 04:56:04 13° SSW
Cosmos 1758 Rocket 4.1 04:49:00 10° S 04:53:15 59° E 04:57:35 10° NNE
Cosmos 1733 4.1 04:50:56 10° NNW 04:54:21 30° W 04:56:00 22° SW
Cosmos 540 Rocket 4.1 04:51:29 21° WSW 04:54:30 40° WNW 04:59:22 10° N
ATLAS 3B R/B 3.5 04:49:44 17° WSW 04:54:53 41° NW 05:01:19 10° NNE
Cosmos 1626 Rocket 4.4 04:54:22 21° WSW 04:56:27 33° WNW 05:00:23 10° N
NOSS 3-2 (C) 3.6 04:52:27 19° SW 04:56:48 63° NW 05:03:27 10° NNE
Cosmos 2360 Rocket 2.5 04:56:55 10° NW 05:02:13 43° WSW 05:07:30 10° S
S3M 4.4 04:57:02 10° S 05:03:02 64° E 05:09:05 10° NNE
CZ-4B R/B 3.8 05:01:14 10° NNE 05:05:14 47° E 05:08:59 10° S
CENTAUR R/B 2.6 05:04:11 12° SSW 05:09:48 80° SE 05:16:42 10° NE
NOSS 3-2 (A) 4.2 05:05:43 14° WSW 05:10:33 41° NW 05:16:54 10° NNE
Cosmos 1953 3.6 05:08:45 10° NW 05:11:58 23° W 05:14:19 14° SW
USA 161 4.0 05:09:31 10° SE 05:12:01 25° ENE 05:14:24 10° NNE
Cosmos 1400 Rocket 3.3 05:08:49 10° S 05:12:42 62° E 05:16:42 10° NNE
Cosmos 1378 4.4 05:12:14 16° WSW 05:14:23 25° WNW 05:17:34 10° NNW
USA 215 3.9 05:12:16 10° ENE 05:18:37 51° SE 05:24:55 10° SSW
Cosmos 2219 3.5 05:15:48 10° SSW 05:21:28 70° ESE 05:27:13 10° NNE
Cosmos-2242 3.2 05:17:18 10° N 05:21:36 78° E 05:25:50 10° SSE
Aureole 2 Rocket 4.3 05:19:54 10° WNW 05:21:50 14° W 05:22:49 13° WSW
PSLV R/B 3.3 05:20:06 14° WSW 05:22:27 47° S 05:25:20 10° ESE
SL-16 R/B 4.0 05:22:31 10° W 05:24:05 11° W 05:25:27 10° WSW
Cosmos 1538 Rocket 4.3 05:19:27 10° S 05:24:33 67° ESE 05:29:42 10° NNE
Cosmos 2219 Rocket 2.3 05:20:31 10° NNW 05:26:10 87° ENE 05:31:45 10° SSE
Lacrosse 5 rocket 4.0 05:26:20 10° NNW 05:28:21 13° N 05:30:20 10° NE
Gbstr 26 Del rocket 4.5 05:23:56 10° WNW 05:31:17 69° NNE 05:37:16 10° ESE
Cosmos 2227 Rocket 3.8 05:27:25 10° S 05:32:30 36° ESE 05:37:36 10° NE
Cosmos 2333 Rocket 2.3 05:27:51 10° NNW 05:33:34 87° ENE 05:39:15 10° SSE
ERBS 4.0 05:30:59 10° W 05:33:45 23° NNW 05:36:34 10° NNE
Cosmos 1238 Rocket 4.4 05:27:37 10° SSW 05:34:06 51° WNW 05:40:26 10° N
Cosmos 2297 Rocket 3.9 05:29:28 10° SSE 05:34:27 33° ESE 05:39:27 10° NE
Cosmos 2333 4.3 05:30:01 10° NW 05:35:29 53° WSW 05:40:55 10° S
Cosmos 2237 Rocket 3.2 05:30:40 10° NNW 05:36:14 54° ENE 05:41:47 10° SE
BREEZE-M R/B 4.4 05:33:19 10° WNW 05:37:01 46° N 05:44:26 10° ENE
COSMOS 2428 2.8 05:32:59 10° NW 05:38:31 53° WSW 05:43:59 10° S
ATLAS CENTAUR R/B 3.1 05:36:52 10° WNW 05:39:43 16° WSW 05:42:37 10° SSW
Meteor 2-5 Rocket 4.0 05:39:43 10° SSW 05:45:04 49° WNW 05:50:33 10° N
MOS 1-B 4.5 05:40:53 10° N 05:46:39 65° WNW 05:52:24 10° SSW
